パンスターズ彗星

C/2016 M1 ( PanSTARRS )

English version
Home page
Updated on January 17, 2017

---------------------------------------------------------------------

・ プロフィール

発見日 2016年6月22日
発見光度 19.7等
発見者 Pan-STARRS 1 telescope (Haleakala)

・ 写真集

・ 軌道要素

Epoch 2018 Aug. 30.0 TT = JDT 2458360.5
T 2018 Aug. 10.14839 TT                                 MPCW
q   2.2105724            (2000.0)            P               Q
z  +0.0003839      Peri.  209.82226     +0.02469716     -0.03425310
 +/-0.0000150      Node    92.20420     -0.59791041     +0.80045014
e   0.9991514      Incl.   90.99973     -0.80118237     -0.59841983
From 444 observations 2016 June 22-Nov. 2, mean residual 0".6.

・ 星図

・ 光度変化

        m1 = 5.0 + 5 logΔ + 10.0 log r

---------------------------------------------------------------------

軌道要素はM.P.E.C. 2016-V116に掲載されたものです。
星図はステラナビゲータ Ver.10 (アストロアーツ) で作成したものです。
光度グラフはComet for Windowsで作成したものです。

---------------------------------------------------------------------

Copyright(C) Seiichi Yoshida (comet@aerith.net). All rights reserved.